| time (UTC) | temp F | wind direction | speed MPH | gust MPH | rain 1hr in | rain 24hr in | rain mn in | humidity % | barometer mb |
| 20260905231416 | 67 | 73 | 0.0 | 3.0 | 0.00 | 0.01 | 0.00 | 61 | 1022.8 |
| 20260905230912 | 67 | 96 | 1.0 | 3.0 | 0.00 | 0.01 | 0.00 | 60 | 1022.5 |
| 20260905225912 | 67 | 102 | 1.0 | 3.0 | 0.00 | 0.01 | 0.00 | 59 | 1022.4 |
| 20260905224916 | 68 | 98 | 1.0 | 2.0 | 0.00 | 0.01 | 0.00 | 58 | 1022.3 |
| 20260905223913 | 68 | 138 | 1.0 | 4.0 | 0.00 | 0.01 | 0.00 | 56 | 1022.5 |
| 20260905222913 | 68 | 133 | 1.0 | 6.0 | 0.00 | 0.01 | 0.00 | 57 | 1022.6 |
| 20260905222413 | 68 | 233 | 1.0 | 6.0 | 0.00 | 0.01 | 0.00 | 57 | 1022.8 |
| 20260905221414 | 68 | 257 | 4.0 | 6.0 | 0.00 | 0.01 | 0.00 | 59 | 1022.7 |
| 20260905220416 | 67 | 247 | 3.0 | 8.0 | 0.00 | 0.01 | 0.00 | 59 | 1022.7 |
| 20260905215413 | 67 | 286 | 4.0 | 6.0 | 0.00 | 0.01 | 0.01 | 59 | 1022.4 |
| 20260905214916 | 67 | 206 | 2.0 | 7.0 | 0.00 | 0.01 | 0.01 | 59 | 1022.4 |
| 20260905214415 | 67 | 335 | 1.0 | 7.0 | 0.00 | 0.01 | 0.01 | 59 | 1022.7 |
| 20260905213913 | 67 | 304 | 1.0 | 7.0 | 0.00 | 0.01 | 0.01 | 59 | 1022.2 |
| 20260905212914 | 68 | 277 | 4.0 | 6.0 | 0.00 | 0.01 | 0.01 | 59 | 1022.2 |
| 20260905212415 | 68 | 330 | 1.0 | 8.0 | 0.00 | 0.01 | 0.01 | 59 | 1022.0 |
| 20260905211915 | 68 | 274 | 4.0 | 8.0 | 0.00 | 0.01 | 0.01 | 59 | 1022.0 |
| 20260905211412 | 68 | 235 | 2.0 | 7.0 | 0.00 | 0.01 | 0.01 | 59 | 1021.9 |
| 20260905210913 | 68 | 282 | 4.0 | 9.0 | 0.00 | 0.01 | 0.01 | 59 | 1022.1 |
| 20260905210417 | 68 | 250 | 3.0 | 9.0 | 0.00 | 0.01 | 0.01 | 59 | 1021.9 |
| 20260905205913 | 68 | 248 | 3.0 | 8.0 | 0.00 | 0.01 | 0.01 | 58 | 1021.9 |
| 20260905205412 | 69 | 323 | 2.0 | 9.0 | 0.00 | 0.01 | 0.01 | 59 | 1021.6 |
| 20260905204916 | 69 | 225 | 1.0 | 10.0 | 0.00 | 0.01 | 0.01 | 58 | 1022.2 |
| 20260905204412 | 69 | 346 | 2.0 | 10.0 | 0.00 | 0.01 | 0.01 | 58 | 1022.2 |
| 20260905203914 | 69 | 331 | 2.0 | 9.0 | 0.00 | 0.01 | 0.01 | 59 | 1022.0 |
| 20260905203416 | 69 | 349 | 2.0 | 9.0 | 0.00 | 0.01 | 0.01 | 59 | 1022.1 |
| 20260905202414 | 69 | 300 | 5.0 | 8.0 | 0.00 | 0.01 | 0.01 | 59 | 1022.0 |
| 20260905201916 | 69 | 266 | 3.0 | 9.0 | 0.00 | 0.01 | 0.01 | 59 | 1021.8 |
| 20260905201426 | 69 | 251 | 2.0 | 9.0 | 0.00 | 0.01 | 0.01 | 59 | 1021.8 |
| 20260905200915 | 69 | 321 | 2.0 | 8.0 | 0.00 | 0.01 | 0.01 | 59 | 1021.8 |
| 20260905200416 | 69 | 265 | 2.0 | 7.0 | 0.00 | 0.01 | 0.01 | 60 | 1021.6 |
| 20260905195914 | 69 | 262 | 1.0 | 4.0 | 0.00 | 0.01 | 0.01 | 60 | 1021.7 |
| 20260905195413 | 69 | 252 | 2.0 | 4.0 | 0.00 | 0.01 | 0.01 | 60 | 1021.5 |
| 20260905194916 | 69 | 335 | 3.0 | 3.0 | 0.00 | 0.01 | 0.01 | 60 | 1021.6 |
| 20260905194415 | 69 | 296 | 2.0 | 3.0 | 0.00 | 0.01 | 0.01 | 59 | 1021.4 |
| 20260905193913 | 69 | 279 | 0.0 | 4.0 | 0.00 | 0.01 | 0.01 | 59 | 1021.4 |
| 20260905193417 | 69 | 252 | 1.0 | 4.0 | 0.00 | 0.01 | 0.01 | 59 | 1021.3 |
| 20260905192915 | 69 | 242 | 1.0 | 4.0 | 0.00 | 0.01 | 0.01 | 59 | 1021.3 |
| 20260905192414 | 69 | 303 | 0.0 | 6.0 | 0.00 | 0.01 | 0.01 | 58 | 1021.3 |
| 20260905191916 | 69 | 290 | 4.0 | 6.0 | 0.00 | 0.01 | 0.01 | 59 | 1021.1 |
| 20260905191414 | 69 | 279 | 2.0 | 3.0 | 0.00 | 0.01 | 0.01 | 58 | 1020.9 |
| 20260905190913 | 69 | 245 | 2.0 | 6.0 | 0.00 | 0.01 | 0.01 | 58 | 1021.0 |
| 20260905190417 | 69 | 290 | 1.0 | 6.0 | 0.00 | 0.01 | 0.01 | 58 | 1021.2 |
| 20260905185913 | 69 | 256 | 2.0 | 4.0 | 0.00 | 0.01 | 0.01 | 58 | 1021.2 |
| 20260905185413 | 69 | 10 | 0.0 | 3.0 | 0.00 | 0.01 | 0.01 | 57 | 1021.1 |
| 20260905184918 | 69 | 262 | 2.0 | 3.0 | 0.00 | 0.01 | 0.01 | 57 | 1021.3 |
| 20260905184414 | 69 | 298 | 1.0 | 6.0 | 0.00 | 0.01 | 0.01 | 57 | 1020.9 |
| 20260905183915 | 69 | 344 | 1.0 | 6.0 | 0.00 | 0.01 | 0.01 | 57 | 1020.8 |
| 20260905183416 | 69 | 337 | 2.0 | 3.0 | 0.00 | 0.01 | 0.01 | 56 | 1020.8 |
| 20260905182927 | 69 | 352 | 2.0 | 6.0 | 0.00 | 0.01 | 0.01 | 56 | 1020.6 |
| 20260905182415 | 70 | 348 | 1.0 | 6.0 | 0.00 | 0.01 | 0.01 | 55 | 1020.8 |
| 20260905181915 | 70 | 317 | 1.0 | 7.0 | 0.00 | 0.01 | 0.01 | 54 | 1020.3 |
| 20260905181414 | 71 | 321 | 1.0 | 7.0 | 0.00 | 0.01 | 0.01 | 53 | 1020.5 |
| 20260905180928 | 71 | 331 | 1.0 | 7.0 | 0.00 | 0.01 | 0.01 | 53 | 1020.3 |
| 20260905180416 | 71 | 323 | 4.0 | 9.0 | 0.00 | 0.01 | 0.01 | 53 | 1020.4 |
| 20260905175912 | 71 | 281 | 4.0 | 10.0 | 0.00 | 0.01 | 0.01 | 53 | 1020.6 |
| 20260905175412 | 71 | 286 | 2.0 | 10.0 | 0.00 | 0.01 | 0.01 | 52 | 1020.2 |
| 20260905174915 | 72 | 317 | 3.0 | 9.0 | 0.00 | 0.01 | 0.01 | 52 | 1020.2 |
| 20260905174416 | 72 | 332 | 2.0 | 9.0 | 0.00 | 0.01 | 0.01 | 51 | 1020.1 |
| 20260905173912 | 72 | 319 | 4.0 | 9.0 | 0.00 | 0.01 | 0.01 | 51 | 1019.7 |
| 20260905172914 | 72 | 312 | 1.0 | 10.0 | 0.00 | 0.01 | 0.01 | 51 | 1019.8 |
| 20260905171914 | 73 | 274 | 3.0 | 10.0 | 0.00 | 0.01 | 0.01 | 50 | 1019.7 |
| 20260905171413 | 73 | 302 | 3.0 | 10.0 | 0.00 | 0.01 | 0.01 | 50 | 1019.8 |
| 20260905170913 | 73 | 263 | 3.0 | 13.0 | 0.00 | 0.01 | 0.01 | 50 | 1019.8 |
| 20260905170416 | 73 | 307 | 3.0 | 13.0 | 0.00 | 0.01 | 0.01 | 50 | 1019.7 |
| 20260905165912 | 73 | 261 | 2.0 | 7.0 | 0.00 | 0.01 | 0.01 | 50 | 1019.7 |
| 20260905165413 | 74 | 301 | 4.0 | 7.0 | 0.00 | 0.01 | 0.01 | 49 | 1019.9 |
| 20260905164918 | 74 | 333 | 1.0 | 8.0 | 0.00 | 0.01 | 0.01 | 49 | 1019.6 |
| 20260905164413 | 74 | 344 | 4.0 | 8.0 | 0.00 | 0.01 | 0.01 | 49 | 1019.7 |
| 20260905163913 | 74 | 25 | 1.0 | 7.0 | 0.00 | 0.01 | 0.01 | 48 | 1019.4 |
| 20260905163415 | 74 | 317 | 1.0 | 9.0 | 0.00 | 0.01 | 0.01 | 48 | 1019.5 |
| 20260905162913 | 74 | 12 | 3.0 | 9.0 | 0.00 | 0.01 | 0.01 | 48 | 1019.6 |
| 20260905162414 | 74 | 314 | 4.0 | 8.0 | 0.00 | 0.01 | 0.01 | 48 | 1019.7 |
| 20260905161413 | 74 | 340 | 2.0 | 8.0 | 0.00 | 0.01 | 0.01 | 49 | 1019.6 |
| 20260905160914 | 74 | 11 | 3.0 | 9.0 | 0.00 | 0.01 | 0.01 | 48 | 1019.6 |
| 20260905160415 | 74 | 313 | 2.0 | 9.0 | 0.00 | 0.01 | 0.01 | 48 | 1019.5 |
| 20260905155913 | 74 | 240 | 2.0 | 11.0 | 0.00 | 0.01 | 0.01 | 48 | 1019.7 |
| 20260905155414 | 74 | 285 | 5.0 | 13.0 | 0.00 | 0.01 | 0.01 | 47 | 1019.6 |
| 20260905154915 | 75 | 322 | 5.0 | 15.0 | 0.00 | 0.01 | 0.01 | 47 | 1019.5 |
| 20260905154414 | 75 | 19 | 9.0 | 16.0 | 0.00 | 0.01 | 0.01 | 47 | 1019.5 |
| 20260905153414 | 75 | 269 | 5.0 | 10.0 | 0.00 | 0.01 | 0.01 | 47 | 1019.1 |
| 20260905152914 | 75 | 338 | 2.0 | 10.0 | 0.00 | 0.01 | 0.01 | 47 | 1019.4 |
| 20260905152414 | 75 | 322 | 5.0 | 10.0 | 0.00 | 0.01 | 0.01 | 46 | 1019.4 |
| 20260905151914 | 75 | 348 | 4.0 | 11.0 | 0.00 | 0.01 | 0.01 | 45 | 1019.6 |
| 20260905151412 | 75 | 266 | 6.0 | 11.0 | 0.00 | 0.01 | 0.01 | 45 | 1019.5 |
| 20260905150913 | 76 | 316 | 5.0 | 14.0 | 0.00 | 0.01 | 0.01 | 45 | 1019.5 |
| 20260905145914 | 76 | 305 | 4.0 | 17.0 | 0.00 | 0.01 | 0.01 | 43 | 1019.4 |
| 20260905145413 | 76 | 260 | 11.0 | 17.0 | 0.00 | 0.01 | 0.01 | 43 | 1019.6 |
| 20260905144917 | 76 | 300 | 5.0 | 17.0 | 0.00 | 0.01 | 0.01 | 43 | 1019.3 |
| 20260905144414 | 76 | 317 | 4.0 | 14.0 | 0.00 | 0.01 | 0.01 | 42 | 1019.5 |
| 20260905143914 | 76 | 264 | 7.0 | 14.0 | 0.00 | 0.01 | 0.01 | 42 | 1019.5 |
| 20260905142913 | 76 | 309 | 3.0 | 14.0 | 0.00 | 0.01 | 0.01 | 42 | 1019.4 |
| 20260905141412 | 76 | 281 | 5.0 | 15.0 | 0.00 | 0.01 | 0.01 | 41 | 1019.7 |
| 20260905140913 | 77 | 288 | 9.0 | 15.0 | 0.00 | 0.01 | 0.01 | 41 | 1019.6 |
| 20260905140416 | 77 | 298 | 6.0 | 15.0 | 0.00 | 0.01 | 0.01 | 41 | 1019.6 |
| 20260905135414 | 77 | 17 | 8.0 | 17.0 | 0.00 | 0.01 | 0.01 | 40 | 1019.4 |
| 20260905134428 | 78 | 359 | 7.0 | 13.0 | 0.00 | 0.01 | 0.01 | 38 | 1019.5 |
| 20260905132915 | 79 | 348 | 8.0 | 14.0 | 0.00 | 0.01 | 0.01 | 39 | 1019.2 |
| 20260905132414 | 79 | 287 | 11.0 | 17.0 | 0.00 | 0.01 | 0.01 | 38 | 1019.2 |
| 20260905131929 | 79 | 328 | 11.0 | 17.0 | 0.00 | 0.01 | 0.01 | 38 | 1019.2 |
| 20260905131413 | 79 | 0 | 6.0 | 13.0 | 0.00 | 0.01 | 0.01 | 37 | 1019.0 |
| 20260905130916 | 79 | 267 | 3.0 | 11.0 | 0.00 | 0.01 | 0.01 | 39 | 1019.1 |
| 20260905130417 | 79 | 328 | 6.0 | 13.0 | 0.00 | 0.01 | 0.01 | 39 | 1019.3 |
| 20260905125914 | 79 | 282 | 4.0 | 17.0 | 0.00 | 0.01 | 0.01 | 39 | 1019.4 |
| 20260905125414 | 79 | 326 | 6.0 | 18.0 | 0.00 | 0.01 | 0.01 | 38 | 1019.2 |
| 20260905124916 | 79 | 232 | 6.0 | 18.0 | 0.00 | 0.01 | 0.01 | 37 | 1019.2 |
| 20260905123912 | 79 | 303 | 2.0 | 15.0 | 0.00 | 0.01 | 0.01 | 38 | 1019.3 |
| 20260905122914 | 79 | 37 | 7.0 | 16.0 | 0.00 | 0.01 | 0.01 | 38 | 1019.4 |
| 20260905122412 | 79 | 324 | 8.0 | 16.0 | 0.00 | 0.01 | 0.01 | 38 | 1019.5 |
| 20260905121915 | 79 | 320 | 5.0 | 15.0 | 0.00 | 0.01 | 0.01 | 38 | 1019.6 |
| 20260905121415 | 78 | 358 | 8.0 | 15.0 | 0.00 | 0.01 | 0.01 | 41 | 1019.4 |
| 20260905120912 | 78 | 236 | 7.0 | 15.0 | 0.00 | 0.01 | 0.01 | 43 | 1019.3 |
| 20260905120412 | 77 | 329 | 9.0 | 18.0 | 0.00 | 0.01 | 0.01 | 44 | 1019.2 |
| 20260905115412 | 76 | 19 | 6.0 | 17.0 | 0.01 | 0.01 | 0.01 | 45 | 1019.3 |
| 20260905114911 | 75 | 284 | 4.0 | 15.0 | 0.01 | 0.01 | 0.01 | 49 | 1019.3 |
| 20260905114413 | 74 | 241 | 2.0 | 17.0 | 0.01 | 0.01 | 0.01 | 50 | 1019.5 |
| 20260905113911 | 73 | 331 | 3.0 | 17.0 | 0.01 | 0.01 | 0.01 | 53 | 1019.5 |
| 20260905113411 | 71 | 323 | 5.0 | 10.0 | 0.01 | 0.01 | 0.01 | 55 | 1019.7 |
| 20260905112913 | 70 | 12 | 2.0 | 10.0 | 0.01 | 0.01 | 0.01 | 57 | 1019.6 |
| 20260905112413 | 69 | 310 | 2.0 | 10.0 | 0.01 | 0.01 | 0.01 | 58 | 1019.5 |
| 20260905111412 | 68 | 315 | 3.0 | 13.0 | 0.01 | 0.01 | 0.01 | 62 | 1019.5 |
| 20260905110912 | 69 | 351 | 2.0 | 13.0 | 0.01 | 0.01 | 0.01 | 62 | 1019.7 |
| 20260905110413 | 69 | 298 | 4.0 | 11.0 | 0.01 | 0.01 | 0.01 | 61 | 1019.9 |
| 20260905105413 | 72 | 326 | 4.0 | 15.0 | 0.00 | 0.00 | 0.00 | 56 | 1019.6 |
| 20260905104912 | 73 | 337 | 2.0 | 15.0 | 0.00 | 0.00 | 0.00 | 49 | 1019.6 |
| 20260905104415 | 73 | 319 | 6.0 | 15.0 | 0.00 | 0.00 | 0.00 | 48 | 1019.5 |
| 20260905103913 | 74 | 332 | 3.0 | 15.0 | 0.00 | 0.00 | 0.00 | 47 | 1019.1 |
| 20260905103412 | 74 | 317 | 4.0 | 10.0 | 0.00 | 0.00 | 0.00 | 45 | 1019.1 |
| 20260905102914 | 75 | 309 | 4.0 | 11.0 | 0.00 | 0.00 | 0.00 | 44 | 1019.3 |
| 20260905102414 | 76 | 320 | 6.0 | 15.0 | 0.00 | 0.00 | 0.00 | 42 | 1019.3 |
| 20260905101912 | 76 | 341 | 10.0 | 21.0 | 0.00 | 0.00 | 0.00 | 42 | 1019.3 |
| 20260905101413 | 76 | 293 | 5.0 | 21.0 | 0.00 | 0.00 | 0.00 | 41 | 1019.3 |
| 20260905100912 | 76 | 301 | 6.0 | 19.0 | 0.00 | 0.00 | 0.00 | 41 | 1019.4 |
| 20260905100412 | 76 | 293 | 4.0 | 19.0 | 0.00 | 0.00 | 0.00 | 40 | 1019.4 |
| 20260905095913 | 77 | 330 | 9.0 | 15.0 | 0.00 | 0.00 | 0.00 | 40 | 1019.3 |
| 20260905095412 | 77 | 323 | 5.0 | 15.0 | 0.00 | 0.00 | 0.00 | 40 | 1019.5 |
| 20260905094912 | 78 | 339 | 7.0 | 15.0 | 0.00 | 0.00 | 0.00 | 41 | 1019.5 |
| 20260905094413 | 78 | 299 | 9.0 | 16.0 | 0.00 | 0.00 | 0.00 | 41 | 1019.5 |
| 20260905093912 | 78 | 0 | 6.0 | 16.0 | 0.00 | 0.00 | 0.00 | 42 | 1019.7 |
| 20260905092913 | 76 | 330 | 5.0 | 16.0 | 0.00 | 0.00 | 0.00 | 43 | 1019.6 |
| 20260905091912 | 76 | 354 | 12.0 | 18.0 | 0.00 | 0.00 | 0.00 | 43 | 1019.5 |
| 20260905091411 | 76 | 334 | 4.0 | 15.0 | 0.00 | 0.00 | 0.00 | 46 | 1019.6 |
| 20260905090912 | 76 | 338 | 8.0 | 15.0 | 0.00 | 0.00 | 0.00 | 45 | 1019.7 |
| 20260905090412 | 76 | 332 | 7.0 | 16.0 | 0.00 | 0.00 | 0.00 | 45 | 1019.6 |
| 20260905085411 | 77 | 320 | 4.0 | 16.0 | 0.00 | 0.00 | 0.00 | 45 | 1019.4 |
| 20260905084911 | 77 | 348 | 3.0 | 19.0 | 0.00 | 0.00 | 0.00 | 46 | 1019.5 |
| 20260905084412 | 78 | 322 | 11.0 | 19.0 | 0.00 | 0.00 | 0.00 | 45 | 1019.4 |
| 20260905083915 | 78 | 316 | 8.0 | 19.0 | 0.00 | 0.00 | 0.00 | 46 | 1019.2 |
| 20260905083412 | 78 | 351 | 7.0 | 13.0 | 0.00 | 0.00 | 0.00 | 48 | 1019.2 |
| 20260905082912 | 77 | 326 | 5.0 | 21.0 | 0.00 | 0.00 | 0.00 | 50 | 1019.5 |
| 20260905082412 | 76 | 348 | 11.0 | 21.0 | 0.00 | 0.00 | 0.00 | 50 | 1019.3 |
| 20260905081911 | 76 | 322 | 3.0 | 22.0 | 0.00 | 0.00 | 0.00 | 51 | 1019.7 |
| 20260905081412 | 76 | 359 | 10.0 | 22.0 | 0.00 | 0.00 | 0.00 | 51 | 1019.1 |
| 20260905080911 | 76 | 297 | 10.0 | 19.0 | 0.00 | 0.00 | 0.00 | 52 | 1019.0 |
| 20260905075913 | 76 | 331 | 7.0 | 21.0 | 0.00 | 0.00 | 0.00 | 52 | 1018.4 |
| 20260905075412 | 76 | 314 | 7.0 | 18.0 | 0.00 | 0.00 | 0.00 | 53 | 1018.5 |
| 20260905074911 | 76 | 303 | 8.0 | 16.0 | 0.00 | 0.00 | 0.00 | 54 | 1018.0 |
| 20260905074415 | 76 | 235 | 6.0 | 18.0 | 0.00 | 0.00 | 0.00 | 54 | 1017.7 |
| 20260905073912 | 76 | 298 | 8.0 | 18.0 | 0.00 | 0.00 | 0.00 | 54 | 1017.5 |
| 20260905073412 | 76 | 255 | 6.0 | 15.0 | 0.00 | 0.00 | 0.00 | 55 | 1017.3 |
| 20260905072915 | 76 | 274 | 4.0 | 13.0 | 0.00 | 0.00 | 0.00 | 54 | 1017.7 |
| 20260905072412 | 76 | 150 | 5.0 | 21.0 | 0.00 | 0.00 | 0.00 | 54 | 1017.4 |
| 20260905071912 | 76 | 265 | 9.0 | 21.0 | 0.00 | 0.00 | 0.00 | 53 | 1016.9 |
| 20260905071414 | 77 | 277 | 10.0 | 17.0 | 0.00 | 0.00 | 0.00 | 53 | 1016.9 |
| 20260905070912 | 77 | 316 | 4.0 | 15.0 | 0.00 | 0.00 | 0.00 | 52 | 1017.1 |
| 20260905065914 | 78 | 6 | 8.0 | 16.0 | 0.00 | 0.00 | 0.00 | 52 | 1016.4 |
| 20260905065412 | 78 | 313 | 7.0 | 15.0 | 0.00 | 0.00 | 0.00 | 52 | 1016.4 |
| 20260905064412 | 78 | 262 | 9.0 | 14.0 | 0.00 | 0.00 | 0.00 | 51 | 1016.2 |
| 20260905063914 | 78 | 347 | 0.0 | 10.0 | 0.00 | 0.00 | 0.00 | 50 | 1015.9 |
| 20260905062913 | 79 | 281 | 5.0 | 14.0 | 0.00 | 0.00 | 0.00 | 49 | 1015.8 |
| 20260905061913 | 79 | 308 | 4.0 | 14.0 | 0.00 | 0.00 | 0.00 | 50 | 1015.5 |
| 20260905061414 | 78 | 283 | 5.0 | 14.0 | 0.00 | 0.00 | 0.00 | 51 | 1015.3 |
| 20260905060913 | 77 | 334 | 4.0 | 14.0 | 0.00 | 0.00 | 0.00 | 51 | 1015.2 |
| 20260905060412 | 76 | 237 | 6.0 | 10.0 | 0.00 | 0.00 | 0.00 | 53 | 1015.2 |
| 20260905055914 | 74 | 272 | 8.0 | 10.0 | 0.00 | 0.00 | 0.00 | 55 | 1015.4 |
| 20260905055415 | 73 | 314 | 4.0 | 9.0 | 0.00 | 0.00 | 0.00 | 60 | 1015.1 |
| 20260905054914 | 73 | 7 | 1.0 | 4.0 | 0.00 | 0.00 | 0.00 | 60 | 1015.0 |
| 20260905054413 | 73 | 114 | 2.0 | 4.0 | 0.00 | 0.00 | 0.00 | 60 | 1014.9 |
| 20260905053413 | 71 | 201 | 1.0 | 3.0 | 0.00 | 0.00 | 0.00 | 63 | 1014.7 |
| 20260905052413 | 71 | 46 | 0.0 | 2.0 | 0.00 | 0.00 | 0.00 | 65 | 1014.7 |
| 20260905051913 | 71 | 91 | 0.0 | 3.0 | 0.00 | 0.00 | 0.00 | 65 | 1014.7 |
| 20260905051414 | 70 | 68 | 1.0 | 3.0 | 0.00 | 0.00 | 0.00 | 65 | 1014.4 |
| 20260905050912 | 69 | 65 | 2.0 | 3.0 | 0.00 | 0.00 | 0.00 | 66 | 1014.6 |
| 20260905050414 | 69 | 99 | 2.0 | 3.0 | 0.00 | 0.00 | 0.00 | 66 | 1014.5 |
| 20260905045915 | 68 | 152 | 0.0 | 0.0 | 0.00 | 0.00 | 0.00 | 66 | 1014.6 |
| 20260905045414 | 68 | 299 | 0.0 | 0.0 | 0.00 | 0.00 | 0.00 | 67 | 1014.6 |
| 20260905044914 | 68 | 299 | 0.0 | 1.0 | 0.00 | 0.00 | 0.00 | 68 | 1014.5 |
| 20260905044413 | 68 | 299 | 0.0 | 1.0 | 0.00 | 0.00 | 0.00 | 67 | 1014.4 |
| 20260905043912 | 67 | 298 | 0.0 | 0.0 | 0.00 | 0.00 | 0.00 | 67 | 1014.6 |
| 20260905043412 | 67 | 298 | 0.0 | 0.0 | 0.00 | 0.00 | 0.00 | 67 | 1014.4 |
| 20260905042401 | 68 | 67 | 0.0 | 2.0 | 0.00 | 0.00 | 0.00 | 66 | 1014.3 |
| 20260905041348 | 68 | 139 | 0.0 | 3.0 | 0.00 | 0.00 | 0.00 | 66 | 1014.4 |
| 20260905040848 | 68 | 139 | 1.0 | 2.0 | 0.00 | 0.00 | 0.00 | 66 | 1014.2 |
| 20260905040347 | 68 | 229 | 0.0 | 0.0 | 0.00 | 0.00 | 0.00 | 65 | 1013.9 |
| 20260905035348 | 69 | 210 | 0.0 | 1.0 | 0.00 | 0.00 | 0.00 | 62 | 1014.0 |
| 20260905034849 | 69 | 210 | 0.0 | 1.0 | 0.00 | 0.00 | 0.00 | 63 | 1014.0 |
| 20260905034349 | 70 | 68 | 1.0 | 1.0 | 0.00 | 0.00 | 0.00 | 62 | 1014.0 |
| 20260905033835 | 71 | 256 | 0.0 | 0.0 | 0.00 | 0.00 | 0.00 | 60 | 1014.1 |
| 20260905033337 | 71 | 256 | 0.0 | 1.0 | 0.00 | 0.00 | 0.00 | 60 | 1014.1 |
| 20260905032837 | 72 | 256 | 0.0 | 2.0 | 0.00 | 0.00 | 0.00 | 58 | 1014.0 |
| 20260905032325 | 73 | 256 | 1.0 | 2.0 | 0.00 | 0.00 | 0.00 | 57 | 1014.1 |
| 20260905031825 | 73 | 344 | 0.0 | 1.0 | 0.00 | 0.00 | 0.00 | 56 | 1014.0 |
| 20260905031326 | 74 | 45 | 0.0 | 1.0 | 0.00 | 0.00 | 0.00 | 55 | 1013.9 |
| 20260905030825 | 75 | 265 | 0.0 | 1.0 | 0.00 | 0.00 | 0.00 | 53 | 1013.9 |
| 20260905030325 | 76 | 8 | 0.0 | 1.0 | 0.00 | 0.00 | 0.00 | 53 | 1013.7 |
| 20260905025324 | 76 | 243 | 0.0 | 4.0 | 0.00 | 0.00 | 0.00 | 51 | 1013.7 |
| 20260905024826 | 77 | 218 | 1.0 | 4.0 | 0.00 | 0.00 | 0.00 | 51 | 1014.0 |
| 20260905024325 | 77 | 194 | 1.0 | 6.0 | 0.00 | 0.00 | 0.00 | 51 | 1013.9 |
| 20260905023826 | 77 | 108 | 1.0 | 6.0 | 0.00 | 0.00 | 0.00 | 51 | 1013.8 |
| 20260905023326 | 77 | 221 | 1.0 | 3.0 | 0.00 | 0.00 | 0.00 | 51 | 1013.9 |
| 20260905022824 | 77 | 112 | 0.0 | 6.0 | 0.00 | 0.00 | 0.00 | 51 | 1013.8 |
| 20260905022325 | 76 | 238 | 0.0 | 7.0 | 0.00 | 0.00 | 0.00 | 51 | 1013.9 |
| 20260905021825 | 76 | 158 | 0.0 | 7.0 | 0.00 | 0.00 | 0.00 | 51 | 1013.9 |
| 20260905021338 | 76 | 235 | 2.0 | 7.0 | 0.00 | 0.00 | 0.00 | 52 | 1013.8 |
| 20260905020837 | 76 | 22 | 1.0 | 4.0 | 0.00 | 0.00 | 0.00 | 52 | 1013.8 |
| 20260905020326 | 75 | 186 | 1.0 | 7.0 | 0.00 | 0.00 | 0.00 | 53 | 1013.7 |
| 20260905015825 | 74 | 160 | 2.0 | 7.0 | 0.00 | 0.00 | 0.00 | 55 | 1013.7 |
| 20260905015324 | 73 | 231 | 1.0 | 4.0 | 0.00 | 0.00 | 0.00 | 57 | 1014.1 |
| 20260905014327 | 72 | 100 | 1.0 | 4.0 | 0.00 | 0.00 | 0.00 | 58 | 1013.9 |
| 20260905013325 | 72 | 121 | 2.0 | 6.0 | 0.00 | 0.00 | 0.00 | 57 | 1013.9 |
| 20260905012825 | 72 | 96 | 2.0 | 6.0 | 0.00 | 0.00 | 0.00 | 57 | 1013.8 |
| 20260905012325 | 72 | 222 | 0.0 | 4.0 | 0.00 | 0.00 | 0.00 | 57 | 1014.0 |
| 20260905011826 | 72 | 309 | 0.0 | 2.0 | 0.00 | 0.00 | 0.00 | 56 | 1013.8 |
| 20260905011326 | 72 | 120 | 2.0 | 2.0 | 0.00 | 0.00 | 0.00 | 55 | 1013.9 |
| 20260905010824 | 73 | 209 | 1.0 | 1.0 | 0.00 | 0.00 | 0.00 | 54 | 1013.8 |
| 20260905010325 | 74 | 249 | 1.0 | 3.0 | 0.00 | 0.00 | 0.00 | 54 | 1014.0 |
| 20260905005825 | 74 | 332 | 2.0 | 3.0 | 0.00 | 0.00 | 0.00 | 52 | 1013.7 |
| 20260905005324 | 74 | 123 | 2.0 | 4.0 | 0.00 | 0.00 | 0.00 | 51 | 1013.6 |
| 20260905004325 | 74 | 143 | 3.0 | 4.0 | 0.00 | 0.00 | 0.00 | 52 | 1013.6 |
| 20260905002825 | 75 | 219 | 2.0 | 2.0 | 0.00 | 0.00 | 0.00 | 51 | 1013.6 |
| 20260905002326 | 76 | 350 | 0.0 | 2.0 | 0.00 | 0.00 | 0.00 | 49 | 1013.6 |
| 20260905001825 | 77 | 320 | 0.0 | 4.0 | 0.00 | 0.00 | 0.00 | 48 | 1013.6 |
| 20260905000814 | 77 | 128 | 1.0 | 8.0 | 0.00 | 0.00 | 0.00 | 47 | 1013.5 |
| 20260904235811 | 77 | 161 | 1.0 | 7.0 | 0.00 | 0.00 | 0.00 | 47 | 1013.8 |
| 20260904235312 | 77 | 210 | 3.0 | 7.0 | 0.00 | 0.00 | 0.00 | 47 | 1013.8 |
| 20260904234813 | 77 | 234 | 3.0 | 7.0 | 0.00 | 0.00 | 0.00 | 47 | 1014.0 |
| 20260904234311 | 77 | 186 | 1.0 | 6.0 | 0.00 | 0.00 | 0.00 | 47 | 1013.9 |
| 20260904233812 | 77 | 118 | 2.0 | 7.0 | 0.00 | 0.00 | 0.00 | 47 | 1014.0 |
| 20260904233314 | 76 | 217 | 3.0 | 7.0 | 0.00 | 0.00 | 0.00 | 48 | 1014.1 |
| 20260904232812 | 76 | 207 | 2.0 | 7.0 | 0.00 | 0.00 | 0.00 | 49 | 1014.0 |
| 20260904232314 | 75 | 145 | 1.0 | 7.0 | 0.00 | 0.00 | 0.00 | 50 | 1014.5 |
| 20260904231814 | 75 | 184 | 1.0 | 3.0 | 0.00 | 0.00 | 0.00 | 50 | 1014.4 |